"Pseudo-MPEC" for P21D8tU

Created 2023 Feb 7 15:22:07 UT using Find_Orb

Click here for an explanation of pseudo-MPECs

 
 Astrometry: 
     P21D8tU* C2023 01 22lhX+Qv_%,%H_g8,6vCaG(+sNJ[JW@r2f;krlA1qMjtfW2rG../x9F52
     P21D8tU  C2023 01 22(L=Pu]#bJSvAstrometrydredacted;N-6!clickR0Bcv:1^0?mbF52
     P21D8tU  C2023 01 223OiQl?OvhS:hereuO%I7o%C%G,!;=97,B$[1UMQ5VMX0B-9!1*p6F52
     P21D8tU 3C2023 01 23MO7Z*,wCfhO/ld@!7K7GSI1uVKPgUFW]On=YUnA]Q*OoKQ`PB-)kT14
     P21D8tU 3C2023 01 23?XGD.5S.l6];-pJrk_for#Phr!?X+;@5,9GT]VC6i'V^4L.jETO*T14
     P21D8tU 3C2023 01 23ru_k-j-'Yexplanation9@'G#7Dn/hOeLcl5Tki]ms/B2!PbW6URT14

Station data:
(F52) Pan-STARRS 2, Haleakala  (N20.707382 W156.255910)  US/Hawaii.
   Observers J. Bulger, T. Dukes, T. Lowe, A. Schultz, M. Willman. Measurers
   K. Chambers, S. Chastel, T. de Boer, L. Denneau, J. Fairlamb, H.
   Flewelling, M. Huber, C.-C. Lin, E. Magnier, Y. Ramanjooloo, R. Wainscoat,
   R. Weryk. 1.8-m Ritchey-Chrétien + CCD.
(T14) Mauna Kea-UH/Tholen NEO Follow-Up (CFHT)  (N19.825252 W155.468876)
   US/Hawaii. 3.6-m Canada-France-Hawaii Telescope.

Orbital elements:  P21D8tU
   Perihelion 2023 Mar 23.66483 +/- 67.3 TT = 15:57:21 (JD 2460027.16483)
Epoch 2023 Jan 23.0 TT = JDT 2459967.5   Earth MOID: 0.3755      AutoNEOCP
M 326.31323951 +/- 32               (J2000 ecliptic)
n   0.56459994 +/- 0.184            Peri.   47.70169 +/- 52
a   1.44980244 +/- 0.315            Node   115.79211 +/- 1.6
e   0.0828166 +/- 0.144             Incl.   25.34783 +/- 9
P   1.75/637.61d           H 22.91  G  0.15   U 11.6  SR
q 1.32973465 +/- 0.199    Q 1.56987024 +/- 1.06
From 6 observations 2023 Jan. 22-23 (22.4 hr); mean residual 0".10
Residuals in arcseconds: 
230122 F52  .17-  .07+    230122 F52  .05+  .21-    230123 T14  .02-  .01+    
230122 F52  .13+  .13+    230123 T14  .02-  .01-    230123 T14  .04+  .00     

Ephemerides (geocentric):
Date (UTC) HH   RA             Dec           delta  r     elong  mag " sig PA
---- --------  ------------   ------------  ------ ------ -----  --- --------
2023 02 07 15  08 24 50.345   +46 45 10.89  .40557 1.3428 146.4 22.8 6654  72
2023 02 07 16  08 24 46.748   +46 47 11.74  .40572 1.3428 146.3 22.8 6686  72
2023 02 07 17  08 24 43.153   +46 49 12.41  .40587 1.3428 146.3 22.8 6717  72
2023 02 07 18  08 24 39.560   +46 51 12.90  .40603 1.3428 146.2 22.8 6749  72
2023 02 07 19  08 24 35.969   +46 53 13.21  .40618 1.3427 146.1 22.8 6780  72
2023 02 07 20  08 24 32.380   +46 55 13.34  .40634 1.3427 146.1 22.8 6812  72
2023 02 07 21  08 24 28.794   +46 57 13.29  .40649 1.3427 146.0 22.8 6843  72
2023 02 07 22  08 24 25.209   +46 59 13.07  .40665 1.3427 146.0 22.8 6875  72
2023 02 07 23  08 24 21.627   +47 01 12.66  .40681 1.3426 145.9 22.8 6907  72
2023 02 08 00  08 24 18.046   +47 03 12.08  .40696 1.3426 145.8 22.8 6938  72
2023 02 08 01  08 24 14.468   +47 05 11.31  .40712 1.3426 145.8 22.8 6970  72
2023 02 08 02  08 24 10.892   +47 07 10.37  .40727 1.3426 145.7 22.8 7002  72
2023 02 08 03  08 24 07.318   +47 09 09.25  .40743 1.3426 145.7 22.8 7034  72
2023 02 08 04  08 24 03.747   +47 11 07.94  .40759 1.3425 145.6 22.8 7066  72
2023 02 08 05  08 24 00.178   +47 13 06.46  .40775 1.3425 145.5 22.8 7098  72
2023 02 08 06  08 23 56.610   +47 15 04.80  .40791 1.3425 145.5 22.8 7130  72
2023 02 08 07  08 23 53.046   +47 17 02.96  .40806 1.3425 145.4 22.8 7162  72
2023 02 08 08  08 23 49.483   +47 19 00.94  .40822 1.3424 145.4 22.8 7194  72
2023 02 08 09  08 23 45.923   +47 20 58.74  .40838 1.3424 145.3 22.8 7226  72
2023 02 08 10  08 23 42.365   +47 22 56.36  .40854 1.3424 145.2 22.8 7258  72
2023 02 08 11  08 23 38.810   +47 24 53.80  .40870 1.3424 145.2 22.8 7290  72
2023 02 08 12  08 23 35.257   +47 26 51.06  .40886 1.3423 145.1 22.8 7322  71
2023 02 08 13  08 23 31.707   +47 28 48.13  .40902 1.3423 145.1 22.8 7355  71
2023 02 08 14  08 23 28.158   +47 30 45.03  .40918 1.3423 145.0 22.8 7387  71
2023 02 08 15  08 23 24.613   +47 32 41.75  .40934 1.3423 145.0 22.8 7419  71
2023 02 08 16  08 23 21.070   +47 34 38.29  .40951 1.3422 144.9 22.8 7452  71
2023 02 08 17  08 23 17.529   +47 36 34.65  .40967 1.3422 144.8 22.8 7484  71
2023 02 08 18  08 23 13.991   +47 38 30.83  .40983 1.3422 144.8 22.8 7517  71
2023 02 08 19  08 23 10.455   +47 40 26.83  .40999 1.3422 144.7 22.8 7549  71
2023 02 08 20  08 23 06.922   +47 42 22.65  .41015 1.3421 144.7 22.8 7582  71
2023 02 08 21  08 23 03.392   +47 44 18.29  .41032 1.3421 144.6 22.8 7614  71
2023 02 08 22  08 22 59.864   +47 46 13.75  .41048 1.3421 144.5 22.8 7647  71
2023 02 08 23  08 22 56.339   +47 48 09.03  .41064 1.3421 144.5 22.8 7680  71
2023 02 09 00  08 22 52.817   +47 50 04.13  .41081 1.3421 144.4 22.8 7713  71
2023 02 09 01  08 22 49.297   +47 51 59.04  .41097 1.3420 144.4 22.8 7745  71
2023 02 09 02  08 22 45.780   +47 53 53.78  .41114 1.3420 144.3 22.8 7778  71
2023 02 09 03  08 22 42.265   +47 55 48.34  .41130 1.3420 144.3 22.8 7811  71
2023 02 09 04  08 22 38.754   +47 57 42.72  .41147 1.3420 144.2 22.8 7844  71
2023 02 09 05  08 22 35.245   +47 59 36.91  .41163 1.3419 144.1 22.8 7877  71
2023 02 09 06  08 22 31.739   +48 01 30.93  .41180 1.3419 144.1 22.8 7910  71
2023 02 09 07  08 22 28.236   +48 03 24.77  .41196 1.3419 144.0 22.8 7943  71
2023 02 09 08  08 22 24.735   +48 05 18.42  .41213 1.3419 144.0 22.8 7976  71
2023 02 09 09  08 22 21.238   +48 07 11.90  .41230 1.3418 143.9 22.8 8009  71
2023 02 09 10  08 22 17.743   +48 09 05.19  .41246 1.3418 143.8 22.8 8042  71
2023 02 09 11  08 22 14.251   +48 10 58.31  .41263 1.3418 143.8 22.8 8075  71
2023 02 09 12  08 22 10.763   +48 12 51.24  .41280 1.3418 143.7 22.9 8109  71
2023 02 09 13  08 22 07.277   +48 14 44.00  .41297 1.3418 143.7 22.9 8142  71
2023 02 09 14  08 22 03.794   +48 16 36.57  .41313 1.3417 143.6 22.9 8175  71